sat.trackr.live / text

‹ back to catalog

SAOCOM 1B

NORAD 46265 · 2020-059A

PAYLOAD ACTIVE UNKNOWN

§ Identity

Operator
Country
ARGN
Launch date
2020-08-30
Launch site
AFETR
Launch vehicle
Mass (kg)
RCS (m²)

External: N2YO · Heavens-Above · Gunter

§ Orbital elements

Epoch: 2026-05-25T03:30:33.968736Z

Period
97.16 min
Inclination
97.8894°
Eccentricity
0.0001492
Mean motion
14.82150563 rev/d
Perigee alt
621.5 km
Apogee alt
623.6 km
Semi-major
7,000.7 km
B*
8.3445e-5
RAAN
331.3236°
Arg perigee
85.3906°
Mean anomaly
274.7477°
Rev number
31,007

§ Raw data

SAOCOM 1B1 46265U 20059A   26145.14622649  .00000612  00000+0  83445-4 0  99972 46265  97.8894 331.3236 0001492  85.3906 274.7477 14.82150563310072

JSON: /api/v1/satellites/46265 · /tle

For live sub-satellite position, see the globe view (requires WebGL).

§ Visibility from observer

Set your observer location to see the next 7 days of passes ≥ 10°. The values pass through the URL so the page stays shareable.

No JS? Fill the form by hand. The geolocation button needs JavaScript.

§ Radio — SatNOGS DB

ModeDescriptionDownlinkUplink
BPSK S-band telemetry 2.256 GHz

1 transmitter · refreshed weekly from db.satnogs.org